sat.trackr.live / text

‹ back to catalog

TIANQI-14

NORAD 48864 · 2021-055E

PAYLOAD ACTIVE UNKNOWN

§ Identity

Operator
Country
PRC
Launch date
2021-06-18
Launch site
XICLF
Launch vehicle
Mass (kg)
RCS (m²)

External: N2YO · Heavens-Above · Gunter

§ Orbital elements

Epoch: 2026-09-13T02:06:22.201344Z

Period
95.08 min
Inclination
34.9980°
Eccentricity
0.0004053
Mean motion
15.14490480 rev/d
Perigee alt
519.7 km
Apogee alt
525.3 km
Semi-major
6,900.7 km
B*
2.5288e-4
RAAN
253.2093°
Arg perigee
9.1694°
Mean anomaly
350.9091°
Rev number
28,705

§ Raw data

TIANQI-141 48864U 21055E   26256.08775696  .00004729  00000+0  25288-3 0  99912 48864  34.9980 253.2093 0004053   9.1694 350.9091 15.14490480287055

JSON: /api/v1/satellites/48864 · /tle

For live sub-satellite position, see the globe view (requires WebGL).

§ Visibility from observer

Set your observer location to see the next 7 days of passes ≥ 10°. The values pass through the URL so the page stays shareable.

No JS? Fill the form by hand. The geolocation button needs JavaScript.